Wind_Speed
41 41 42 44 43 43 44 45 45 46 48 51 51 54 58 61 65 70 76 83 90 97 93 85 70 62 62 59 55 53 62 63 63 70 58 60 56 48
41 41 42 44 44 43 45 46 48 49 49 52 54 57 60 65 70 76 86 92 92 87 71 54 51 50 47 46 46 51 61 66 63 73 56 66 58 47
41 41 43 43 43 44 45 47 48 51 50 52 57 61 65 70 75 87 90 84 69 49 36 41 37 37 40 44 44 46 59 69 71 76 54 58 53 48
42 41 42 42 43 44 45 47 50 52 52 52 58 63 68 75 85 84 66 50 35 26 29 30 33 36 42 47 47 46 50 74 70 78 59 57 53 50
41 41 42 41 43 44 46 48 50 51 53 54 59 66 75 84 77 56 50 47 35 26 26 27 29 31 31 31 42 45 55 76 83 59 63 62 55 50
41 41 41 41 43 45 46 48 49 51 51 56 61 70 80 75 59 47 48 42 39 36 34 33 32 33 38 35 39 41 64 79 85 60 64 60 55 49
39 40 40 41 42 45 46 47 48 50 52 58 63 73 75 61 50 47 48 44 45 45 42 36 43 44 43 45 45 48 69 84 76 64 62 59 53 47
39 39 39 40 41 44 46 46 49 49 54 59 65 73 60 50 46 48 52 53 44 44 41 44 42 44 49 46 52 55 81 83 71 68 63 58 52 45
38 38 39 39 41 42 43 46 47 51 55 62 70 66 51 46 42 49 54 49 47 46 32 33 37 23 32 44 62 83 86 75 75 68 60 55 50 42
37 37 38 39 41 41 41 44 47 50 56 64 68 61 48 41 46 53 46 46 51 32 25 15 20 36 54 77 84 87 78 75 68 60 57 53 47 40
36 37 37 38 39 39 41 41 46 50 57 66 64 52 45 44 49 44 46 46 24 13 15 34 47 61 80 84 69 81 77 70 62 58 55 50 44 37
36 36 35 38 37 38 38 39 44 49 55 64 57 43 43 45 44 43 41 19 7 22 43 58 77 77 79 72 56 74 75 62 59 56 52 47 40 34
35 34 35 36 36 37 35 38 42 47 56 59 46 39 38 45 38 26 15 12 38 58 57 65 74 64 56 61 58 66 66 60 59 55 51 46 39 35
34 33 34 34 34 33 34 36 40 47 55 54 38 36 38 35 24 10 15 39 62 64 48 58 53 58 54 45 72 71 67 59 56 52 49 42 36 34
33 31 34 33 32 30 32 35 38 46 53 48 33 31 36 23 12 18 30 50 59 56 44 55 58 56 53 56 60 67 63 57 52 47 42 38 34 34
30 30 30 30 29 27 31 32 36 44 50 40 30 29 26 3 21 18 33 41 64 51 42 55 47 53 50 51 57 58 56 48 50 47 41 35 32 33
31 28 28 27 25 26 27 30 34 42 47 33 24 23 9 10 27 17 46 56 54 47 40 48 58 55 50 41 48 52 47 45 43 42 36 31 30 32
26 26 26 25 23 25 25 29 32 39 44 29 17 13 3 15 31 39 44 44 55 43 39 48 51 54 52 50 44 40 44 40 39 37 33 31 28 30
29 28 29 25 22 24 24 26 30 37 42 27 13 6 7 21 31 46 55 61 54 35 32 41 52 48 48 51 35 47 38 39 39 36 32 28 27 28
29 29 26 23 22 23 21 25 30 36 38 27 13 7 11 32 48 59 68 70 53 27 36 47 50 39 48 38 32 41 48 42 38 35 30 28 26 25
30 28 23 21 21 19 21 24 31 36 34 25 16 14 19 35 48 55 57 61 38 37 37 39 46 43 45 41 37 44 45 47 44 38 34 31 28 28
27 26 22 20 19 18 20 24 32 34 31 23 20 23 23 36 53 60 55 56 46 32 38 40 39 47 43 38 41 42 47 39 38 38 33 29 26 27
28 26 22 17 17 20 22 25 32 32 27 21 22 28 27 35 62 60 56 59 54 42 35 31 38 52 37 38 38 37 42 36 37 35 31 26 25 24
Wind_Direction
277 278 279 280 282 285 289 290 291 290 291 292 293 294 296 297 297 297 296 295 292 289 288 281 278 267 259 254 247 236 228 221 216 208 204 215 219 222
275 276 278 280 282 286 289 291 292 293 296 296 298 299 298 298 299 299 299 298 297 289 284 272 262 260 251 240 230 219 217 214 207 203 194 209 211 213
272 275 277 279 282 286 289 292 294 295 298 300 302 303 305 306 304 305 305 307 299 289 269 266 253 241 233 227 222 217 214 209 201 196 189 195 206 209
271 273 276 280 283 287 291 294 296 297 301 304 305 307 309 307 311 311 310 316 319 294 277 262 250 242 238 234 228 231 220 202 194 197 185 191 202 205
271 274 277 280 284 289 293 296 297 302 304 309 308 311 311 313 314 310 317 318 312 299 290 264 255 242 239 237 228 226 211 197 187 182 183 188 198 200
271 275 278 282 287 292 296 298 302 304 308 311 314 314 317 315 310 307 315 311 307 299 291 277 260 250 247 244 229 221 203 190 189 171 180 187 193 192
272 275 278 283 289 294 298 300 303 306 311 315 318 318 318 312 304 309 313 305 299 295 288 276 262 250 249 241 233 218 196 189 174 168 178 187 186 185
271 275 279 283 290 295 300 302 305 309 314 320 318 321 315 308 306 310 311 305 302 296 286 276 272 265 246 230 216 203 182 176 164 175 179 180 179 180
270 274 278 285 291 297 300 303 308 311 318 320 322 321 315 312 310 309 312 307 304 302 289 279 276 221 199 198 184 172 174 166 171 174 176 173 175 175
268 273 279 287 294 299 301 306 308 316 323 321 327 321 318 317 316 317 313 308 307 285 284 250 176 164 171 164 165 157 155 166 169 168 169 171 171 171
268 273 281 289 296 300 303 307 313 319 324 327 327 321 324 326 327 322 314 318 311 293 180 143 139 151 152 155 156 157 163 168 164 165 167 168 168 168
268 274 282 290 295 298 303 308 317 323 325 331 327 323 326 329 330 322 326 346 26 134 126 130 143 152 154 154 153 157 165 163 160 164 163 166 165 167
269 275 283 289 294 299 304 310 321 325 329 332 326 324 327 334 328 336 5 74 122 125 129 137 148 147 148 145 137 162 162 161 163 161 163 165 166 165
268 276 282 289 292 300 303 312 325 329 334 331 326 329 335 331 337 65 81 128 141 136 122 142 142 147 154 150 157 162 163 162 162 163 166 163 163 163
269 276 283 287 292 300 306 315 327 330 337 331 327 337 338 333 77 71 114 148 147 137 125 142 144 146 154 158 165 163 162 161 160 162 164 163 163 164
268 275 283 286 295 299 308 318 328 331 337 331 329 345 337 35 130 121 133 159 155 148 140 149 137 146 151 158 161 166 162 159 161 165 165 164 162 165
261 276 283 286 295 297 306 319 328 332 336 330 325 347 333 156 150 160 160 164 159 143 151 149 156 150 154 160 165 159 159 162 169 166 161 163 165 169
259 271 283 286 288 296 304 316 327 331 336 326 315 346 223 178 171 170 164 167 157 153 148 155 157 159 152 165 160 164 165 160 166 167 165 165 166 173
257 275 279 282 282 293 304 316 324 329 333 318 292 310 226 194 183 183 173 173 170 156 152 153 160 154 161 166 168 160 167 170 172 170 171 168 167 174
268 275 273 278 279 289 304 319 325 329 329 308 270 238 214 198 192 183 178 180 172 183 170 161 163 167 171 169 178 171 169 173 177 175 172 169 170 177
267 266 272 271 275 288 301 318 323 327 326 297 269 217 200 201 196 192 188 188 163 171 175 170 174 172 172 176 174 176 176 177 175 177 178 177 176 179
259 264 264 263 275 289 303 315 322 326 326 288 261 212 198 197 196 196 194 192 183 162 171 170 172 163 178 177 183 182 184 187 182 181 180 180 180 184
255 256 253 259 282 292 302 315 317 321 326 279 264 207 204 196 197 202 200 192 192 183 194 182 179 174 185 182 176 187 187 187 193 189 183 188 192 188
Height
5750 5750 5749 5748 5746 5745 5743 5740 5737 5734 5729 5723 5719 5711 5704 5697 5691 5683 5675 5666 5654 5641 5633 5624 5621 5621 5625 5632 5644 5658 5668 5683 5697 5719 5732 5748 5761 5773
5740 5739 5739 5737 5736 5734 5731 5727 5723 5719 5716 5707 5702 5695 5689 5682 5672 5663 5650 5634 5617 5602 5597 5595 5597 5601 5605 5613 5625 5638 5651 5665 5684 5700 5713 5734 5751 5764
5729 5729 5728 5727 5726 5723 5720 5716 5712 5706 5702 5695 5686 5678 5670 5659 5647 5635 5618 5600 5584 5573 5576 5580 5583 5588 5593 5602 5613 5625 5637 5652 5667 5684 5705 5725 5741 5756
5719 5718 5717 5717 5715 5712 5708 5704 5699 5693 5688 5684 5671 5661 5650 5638 5626 5608 5594 5581 5570 5566 5567 5571 5575 5579 5583 5592 5604 5614 5622 5638 5657 5675 5697 5713 5734 5746
5709 5708 5708 5706 5704 5701 5697 5692 5686 5681 5674 5667 5657 5644 5631 5616 5601 5588 5580 5573 5568 5564 5563 5564 5566 5569 5574 5582 5592 5598 5608 5627 5645 5666 5690 5706 5725 5739
5698 5699 5698 5696 5693 5690 5685 5680 5674 5668 5661 5652 5641 5626 5610 5593 5581 5576 5571 5563 5560 5556 5555 5555 5556 5559 5567 5573 5580 5588 5599 5620 5638 5661 5684 5701 5718 5733
5688 5689 5688 5686 5683 5679 5675 5668 5663 5656 5649 5640 5629 5615 5595 5580 5569 5563 5559 5554 5547 5541 5541 5541 5542 5545 5551 5557 5568 5577 5592 5615 5634 5658 5680 5697 5713 5727
5679 5679 5678 5676 5674 5670 5664 5658 5651 5645 5637 5626 5614 5598 5581 5569 5561 5553 5545 5537 5534 5523 5518 5521 5519 5521 5525 5535 5547 5564 5586 5614 5635 5662 5676 5693 5709 5724
5670 5670 5668 5666 5664 5660 5655 5648 5641 5633 5624 5614 5602 5583 5570 5560 5553 5546 5534 5523 5517 5510 5500 5502 5500 5502 5510 5522 5543 5570 5595 5618 5643 5660 5677 5692 5707 5721
5660 5660 5658 5656 5654 5651 5646 5639 5632 5624 5614 5602 5586 5571 5560 5553 5542 5532 5522 5512 5502 5495 5492 5489 5493 5501 5515 5539 5562 5583 5605 5628 5647 5661 5677 5693 5707 5720
5651 5650 5649 5647 5645 5642 5638 5631 5623 5615 5604 5590 5574 5561 5553 5544 5532 5520 5511 5498 5490 5488 5490 5490 5500 5515 5538 5558 5578 5595 5615 5633 5647 5663 5679 5694 5708 5720
5641 5640 5640 5639 5637 5634 5630 5624 5616 5607 5596 5580 5564 5554 5546 5539 5527 5518 5504 5496 5493 5494 5495 5505 5523 5537 5554 5575 5589 5605 5623 5638 5651 5668 5682 5697 5709 5719
5631 5631 5632 5632 5629 5626 5621 5616 5610 5601 5588 5574 5560 5552 5544 5535 5523 5518 5511 5507 5508 5512 5522 5533 5545 5559 5573 5582 5594 5615 5629 5643 5657 5670 5683 5696 5708 5717
5623 5623 5624 5623 5621 5618 5614 5609 5603 5594 5582 5568 5557 5550 5542 5532 5526 5524 5523 5524 5525 5534 5546 5556 5564 5576 5588 5597 5606 5618 5634 5649 5662 5673 5686 5699 5709 5718
5615 5615 5615 5615 5613 5611 5607 5603 5597 5589 5577 5564 5556 5550 5542 5531 5531 5533 5533 5537 5545 5551 5561 5569 5581 5589 5598 5609 5617 5630 5641 5653 5667 5682 5693 5702 5710 5720
5607 5607 5607 5607 5605 5604 5601 5597 5592 5585 5573 5562 5555 5551 5543 5537 5539 5540 5542 5548 5556 5563 5574 5582 5590 5600 5610 5622 5630 5641 5652 5665 5672 5684 5695 5704 5713 5721
5598 5599 5600 5599 5599 5598 5596 5591 5588 5581 5571 5561 5557 5553 5547 5545 5547 5550 5551 5557 5564 5573 5583 5592 5599 5609 5621 5633 5640 5649 5659 5669 5681 5689 5698 5706 5714 5722
5589 5591 5592 5592 5592 5591 5590 5587 5583 5578 5569 5561 5558 5557 5554 5552 5556 5556 5558 5564 5572 5581 5588 5597 5607 5615 5623 5633 5644 5658 5667 5675 5684 5692 5699 5707 5715 5723
5581 5582 5584 5585 5586 5586 5584 5582 5578 5574 5566 5560 5559 5559 5558 5557 5561 5563 5566 5569 5576 5585 5593 5602 5613 5626 5631 5641 5648 5658 5672 5679 5686 5694 5701 5709 5716 5723
5573 5574 5576 5577 5580 5579 5578 5576 5573 5568 5563 5558 5559 5560 5560 5562 5565 5568 5573 5578 5584 5594 5600 5609 5618 5627 5635 5646 5654 5661 5668 5679 5688 5696 5704 5710 5716 5722
5565 5567 5568 5570 5573 5573 5572 5570 5568 5563 5558 5554 5556 5560 5560 5563 5567 5571 5577 5583 5593 5596 5602 5612 5620 5627 5638 5646 5653 5662 5669 5674 5682 5694 5701 5708 5713 5720
5557 5559 5561 5563 5565 5567 5565 5563 5561 5558 5553 5549 5551 5556 5559 5563 5570 5575 5579 5587 5592 5600 5608 5614 5622 5630 5640 5647 5655 5663 5670 5679 5688 5693 5701 5708 5713 5718
5549 5551 5553 5555 5557 5558 5557 5556 5554 5552 5548 5545 5544 5552 5555 5560 5568 5573 5580 5588 5594 5602 5609 5615 5621 5630 5636 5645 5654 5663 5671 5681 5688 5696 5703 5707 5713 5719